Flag for Qatar Weather past 2 weeks in Al-Jamiliyah, Qatar

Now
71 °F

Clear.


Feels Like: 76 °F
Forecast: 66 / 82 °F
Wind: 10 mph from Southeast

Location: Al Udeid

Current Time: Jan 30, 2015 at 10:09:30 AM

Latest Report: Jan 30, 2015 at 8:58 AM


Visibility: 6 mi

Pressure: 30.11 "Hg

Humidity: 58%

Dew point: 56 °F

Location of Al-JamiliyahLocation

Historic Weather in Al-Jamiliyah — Graph

°F

Al-Jamiliyah temperature yesterday

Maximum temperature yesterday: 82 °F (at 2:58 PM)
Minimum temperature yesterday: 53 °F (at 6:58 AM)
Average temperature yesterday: 67 °F

Past Weeks' High & Low Weather Summary

 TemperatureHumidityPressure
High82 °F (Jan 29, 2:58 PM)100% (Jan 17, 2:58 AM)30.30 "Hg (Jan 17, 2:58 AM)
Low45 °F (Jan 21, 3:58 AM)20% (Jan 24, 3:58 PM)29.97 "Hg (Jan 18, 2:58 PM)
Average61 °F66%30.13 "Hg
* Reported Jan 15 8:58 AM — Jan 30 8:58 AM, Al-Jamiliyah, Weather by CustomWeather, © 2014

Note: Actual official high and low records may vary slightly from our data, if they occured in-between our weather recording intervals... More about our weather records

Advertising

Al-Jamiliyah weather history for previous 24 hours

 ConditionsComfort  
Time TempWeatherWind HumidityBarometerVisibility
8:58 AM
Jan 30
71 °FClear.10 mph58%30.11 "Hg6 mi
7:58 AM64 °FClear.8 mph85%30.11 "HgN/A
6:58 AM59 °FClear.6 mph91%30.08 "Hg6 mi
5:58 AM60 °FClear.6 mph81%30.04 "HgN/A
4:58 AM61 °FClear.5 mph77%30.01 "HgN/A
3:58 AM62 °FFog.6 mph77%30.01 "Hg6 mi
2:58 AM61 °FClear.2 mph78%30.01 "HgN/A
1:58 AM61 °FClear.6 mph77%30.01 "HgN/A
12:58 AM63 °FSunny.5 mph77%30.01 "HgN/A
11:58 PM
Jan 29
64 °FFog.5 mph77%30.02 "Hg6 mi
10:58 PM63 °FFog.7 mph83%30.03 "Hg6 mi
9:58 PM64 °FFog.6 mph85%30.03 "Hg6 mi
8:58 PM65 °FFog.8 mph78%30.04 "Hg6 mi
7:58 PM67 °FSunny.8 mph75%30.03 "HgN/A
6:58 PM68 °FSunny.9 mph69%30.01 "HgN/A
5:58 PM70 °FSunny.10 mph62%30.00 "HgN/A
4:58 PM74 °FSunny.12 mph49%29.98 "HgN/A
3:58 PM79 °FSunny.13 mph40%29.98 "HgN/A
2:58 PM82 °FSunny.14 mph30%29.97 "HgN/A
1:58 PM82 °FClear.13 mph30%29.99 "HgN/A
12:58 PM82 °FClear.13 mph29%30.01 "HgN/A
11:58 AM80 °FClear.12 mph29%30.04 "HgN/A
10:58 AM76 °FClear.9 mph36%30.07 "HgN/A
Weather by CustomWeather, © 2014

See weather overviewHow to use our weather pages